www.pogodaiklimat.ru
ПОГОДА в Любляна аэропорту
Время
(UTC), дата
14 6.08
13 6.08
15 6.08
16 6.08
17 6.08
18 6.08
20 6.08
19 6.08
21 6.08
22 6.08
23 6.08
00 7.08
02 7.08
01 7.08
03 7.08
04 7.08
05 7.08
06 7.08
08 7.08
07 7.08
09 7.08
10 7.08
11 7.08
12 7.08
14 7.08
13 7.08
15 7.08
16 7.08
17 7.08
18 7.08
20 7.08
19 7.08
21 7.08
22 7.08
23 7.08
00 8.08
02 8.08
01 8.08
03 8.08
04 8.08
05 8.08
06 8.08
08 8.08
07 8.08
09 8.08
10 8.08
11 8.08
12 8.08
14 8.08
13 8.08
15 8.08
16 8.08
17 8.08
18 8.08
20 8.08
19 8.08
21 8.08
22 8.08
23 8.08
00 9.08
02 9.08
01 9.08
03 9.08
04 9.08
05 9.08
06 9.08
08 9.08
07 9.08
09 9.08
10 9.08
11 9.08
12 9.08
14 9.08
13 9.08
15 9.08
16 9.08
17 9.08
18 9.08
20 9.08
19 9.08
21 9.08
22 9.08
23 9.08
00 10.08
02 10.08
01 10.08
03 10.08
04 10.08
05 10.08
06 10.08
08 10.08
07 10.08
09 10.08
10 10.08
11 10.08
12 10.08
14 10.08
13 10.08
15 10.08
16 10.08
17 10.08
18 10.08
20 10.08
19 10.08
21 10.08
22 10.08
23 10.08
00 11.08
02 11.08
01 11.08
03 11.08
04 11.08
05 11.08
06 11.08
08 11.08
07 11.08
09 11.08
10 11.08
11 11.08
12 11.08
14 11.08
13 11.08
15 11.08
16 11.08
17 11.08
18 11.08
20 11.08
19 11.08
21 11.08
22 11.08
23 11.08
00 12.08
02 12.08
01 12.08
03 12.08
04 12.08
05 12.08
06 12.08
08 12.08
07 12.08
09 12.08
10 12.08
11 12.08
12 12.08
14 12.08
13 12.08
15 12.08
16 12.08
17 12.08
18 12.08
20 12.08
19 12.08
21 12.08
22 12.08
23 12.08
00 13.08
02 13.08
01 13.08
03 13.08
04 13.08
05 13.08
06 13.08
08 13.08
07 13.08
09 13.08
10 13.08
11 13.08
Ветер
(напр.,м/с)
Видим. Явления Облачность Т
(С)
Тd
(С)
f
(%)
Тe
(С)
Тes
(С)
Комфортность P
(гПа)
Po
(гПа)
Тmin
(С)
Tmax
(С)
R
(мм)
R24
(мм)
S
(см)
ЮВ 2
{4}
40 км 5/5 1500 м
[Cu Sc Ac lent]
+25.7 +17.4 60 +30 +35 душно 1016.0 973.0
ЮЗ 1
{4}
40 км 4/4 1500 м
[Cu Sc Ac lent]
+26.2 +18.1 61 +31 +40 очень
душно
1016.0 973.0
Ю 4
{6}
40 км 6/6 1500 м
[Cu Sc Ac lent]
+25.6 +18.0 63 +30 +32 душно 1016.0 973.0
Ю 4
{6}
40 км 6/6 1200 м
[Cu Sc Ac lent]
+24.2 +18.2 69 +29 +29 душно 1016.9 973.6
Ю 2
{4}
40 км 6/6 1200 м
[Cu Sc Ac lent]
+24.0 +18.2 70 +28 +29 душно 1017.1 973.8
Ю 2
{3}
40 км 6/4 900 м
[Cu Sc Ac lent]
+22.9 +18.7 77 +29 +29 очень
душно
1017.7 974.2 +26.8
З 1
{3}
40 км 1/1 900 м
[Sc Ac trans Ci fib]
+19.0 +17.8 93 +22 +22 комфорт 1019.4 975.3
ЮВ 2
{4}
40 км 4/3 900 м
[Sc Ac trans Ci fib]
+20.9 +18.1 84 +26 +26 душно 1018.6 974.8
С 1
{1}
40 км 1/1 600 м
[Sc Ci fib]
+17.1 +16.6 97 +18 +18 по сезону 1020.0 975.6
СЗ 1
{2}
40 км 1/0
[Ci fib]
+16.5 +16.2 98 +17 +17 по сезону 1020.2 975.6
ЮВ 1
{2}
40 км 1/0
[Ci fib]
+15.6 +15.3 98 +16 +16 прохладно 1020.3 975.6
З 1
{2}
40 км 6/5 2000 м
[Sc Ci fib]
+16.1 +15.9 99 +17 +17 тепло 1020.1 975.5
С 1
{2}
40 км 3/3 2000 м
[Sc Ci fib]
+15.4 +15.2 99 +16 +16 тепло 1019.8 975.0
З 1
{3}
40 км 6/6 2000 м
[Sc Ci fib]
+16.5 +16.2 98 +17 +17 тепло 1019.9 975.4
З 1
{2}
40 км 3/3 2000 м
[Sc Ci fib]
+14.7 +14.5 99 +15 +15 тепло 1019.8 975.0
ЮЗ 1
{2}
40 км 3/1 <50 м
[Sc Ci fib]
+14.2 +14.0 99 +14 +14 по сезону 1020.0 975.1
В 1
{2}
40 км местами туман поземный 1/1 30 м
[Cu hum Ac lent Ci fib]
+15.0 +15.0 100 +15 +16 тепло 1020.3 975.5
З 2 40 км 1/1 1500 м
[Cu hum Ac lent Ci fib]
+17.8 +16.7 93 +18 +21 тепло 1020.0 975.6 +13.5
З 1
{3}
40 км 1/1 1500 м
[Cu hum Ci fib]
+24.1 +17.4 66 +28 +38 душно 1018.8 975.4
Ю 1
{2}
40 км 1/1 1500 м
[Cu hum Ci fib]
+20.9 +17.1 79 +26 +32 душно 1019.6 975.7
З 1
{3}
40 км 1/1 1500 м
[Cu hum Ac lent]
+25.9 +16.2 55 +29 +43 душно 1018.4 975.3
СВ 1
{3}
50 км 1/1 1500 м
[Cu hum Ac lent]
+27.2 +17.1 54 +31 +47 душно 1018.3 975.4
В 1
{5}
40 км 1/1 1380 м
[Cu med, cong Ac lent]
+28.1 +17.3 52 +32 +49 душно 1018.0 975.2
В 4
{9}
40 км 4/4 1500 м
[Cu med, cong Ac trans]
+28.9 +14.7 42 +31 +38 жарко 1017.7 975.0

{6}
40 км н/о +29.4 +15.9 44 +32 +39 душно 1017.3 974.7
В 6
{9}
40 км 4/4 1500 м
[Cu med, cong Ac trans]
+29.2 +15.0 42 +32 +35 душно 1017.5 974.8
В 4
{6}
40 км 4/3 1500 м
[Cu Sc Ac trans]
+27.8 +15.1 46 +30 +33 жарко 1017.3 974.5
ЮВ 4
{8}
40 км 4/3 1500 м
[Cu Sc Ac trans Ci fib]
+27.2 +16.2 51 +31 +32 душно 1017.2 974.3
В 2
{5}
40 км 1/1 1500 м
[Cu hum Ac trans]
+26.1 +17.7 60 +30 +31 душно 1017.4 974.4
штиль 0
{3}
40 км 1/1 1500 м
[Cu hum Ac trans]
+23.2 +18.5 75 +29 +29 душно 1018.2 974.7 +29.7
З 3
{5}
40 км ясно +17.9 +16.4 91 +18 +18 по сезону 1019.8 975.4
штиль 0
{2}
40 км 1/1 1500 м
[Cu hum Ac trans]
+19.4 +17.5 89 +21 +21 комфорт 1019.1 975.1
ЮЗ 1
{3}
40 км 1/1 1500 м
[Cu hum]
+17.1 +15.8 92 +18 +18 тепло 1019.9 975.5
СЗ 2
{3}
40 км 1/1 1500 м
[Cu hum]
+16.4 +14.9 91 +16 +16 по сезону 1020.1 975.5
З 3
{5}
40 км 1/1 1500 м
[Cu hum]
+16.7 +14.9 89 +16 +16 по сезону 1020.0 975.5
СЗ 2
{5}
40 км 1/1 1500 м
[Cu hum]
+17.3 +14.6 84 +18 +18 тепло 1019.8 975.4
СЗ 1
{2}
40 км 1/1 1500 м
[Cu hum]
+14.5 +13.9 96 +15 +15 тепло 1020.4 975.5
З 1
{4}
40 км 1/1 1500 м
[Cu hum]
+14.9 +13.6 92 +15 +15 тепло 1020.1 975.3
штиль 0
{2}
40 км 1/1 1500 м
[Cu hum]
+13.5 +13.0 97 +13 +13 тепло 1020.6 975.5
СЗ 1
{2}
40 км ясно +13.0 +12.4 96 +13 +13 тепло 1020.7 975.5
В 1
{2}
40 км ясно +15.0 +14.0 94 +15 +16 тепло 1020.7 975.8
ЮВ 1
{2}
40 км ясно +18.7 +15.2 80 +21 +24 комфорт 1020.1 975.9 +12.9
штиль 0
{2}
50 км ясно +24.9 +17.4 63 +29 +42 душно 1018.9 975.6
С 1
{2}
40 км ясно +20.7 +16.3 76 +25 +32 комфорт 1020.0 976.1
В 1
{3}
50 км ясно +27.1 +18.1 58 +32 +47 очень
душно
1018.3 975.4
СВ 1
{2}
50 км 1/1 1500 м
[Cu hum]
+28.4 +17.3 51 +32 +49 душно 1018.0 975.2
ЮВ 2
{6}
50 км 1/1 1500 м
[Cu hum]
+29.5 +16.7 46 +33 +48 душно 1017.7 975.1
ЮВ 6
{9}
50 км 1/1 1500 м
[Cu med, cong]
+29.9 +15.2 41 +32 +38 жарко 1017.3 974.8
В 4
{8}
50 км 1/1 1500 м
[Cu med, cong]
+29.9 +16.7 45 +33 +39 душно 1017.0 974.5
В 4
{8}
50 км 1/1 1500 м
[Cu med, cong]
+30.1 +16.1 43 +33 +41 душно 1017.2 974.7
ЮВ 5
{8}
50 км 1/1 1500 м
[Cu hum]
+29.6 +16.8 46 +33 +36 душно 1016.8 974.3
ЮВ 4
{8}
50 км 3/3 2000 м
[Cu med, cong Ci fib]
+28.3 +15.2 45 +31 +32 душно 1016.9 974.2
ЮВ 3
{7}
50 км 3/3 2000 м
[Cu hum Ci fib]
+27.5 +15.8 49 +31 +31 душно 1017.2 974.3
СЗ 1
{2}
40 км 1/1 2000 м
[Cu hum]
+24.9 +19.1 70 +30 +30 душно 1017.7 974.5 +30.2
штиль 0
{1}
50 км ясно +19.5 +17.6 89 +22 +22 комфорт 1018.9 974.8
С 1
{1}
50 км ясно +21.2 +18.6 85 +26 +26 душно 1018.5 974.8
З 2
{3}
50 км ясно +18.7 +17.4 92 +20 +20 тепло 1019.0 974.9
СЗ 2
{3}
50 км ясно +17.5 +16.5 94 +18 +18 тепло 1019.3 974.9
СЗ 2
{2}
50 км ясно +17.1 +16.5 96 +17 +17 тепло 1019.1 974.7
СЗ 1
{2}
50 км ясно +16.5 +16.0 97 +17 +17 тепло 1019.1 974.6
штиль 0
{1}
50 км ясно +15.4 +14.9 97 +15 +15 тепло 1019.2 974.5
З 1
{2}
50 км ясно +15.9 +15.4 97 +17 +17 тепло 1019.1 974.5
СЗ 1
{1}
50 км ясно +14.8 +14.5 98 +15 +15 тепло 1019.3 974.4
штиль 0
{1}
50 км местами туман поземный ясно +14.5 +14.3 99 +14 +14 тепло 1019.3 974.4
штиль 0
{1}
50 км 1/0
[Ac lent]
+15.5 +15.3 99 +15 +16 тепло 1019.3 974.6
С 1
{1}
50 км 1/0
[Ac trans Ci fib]
+18.8 +16.8 88 +21 +24 комфорт 1018.7 974.6 +14.3
штиль 0
{2}
50 км 3/0
[Ac trans Ci fib]
+23.2 +17.7 71 +29 +39 душно 1017.7 974.2
СВ 1
{2}
50 км 5/0
[Ac trans Ci fib]
+21.0 +17.4 80 +26 +31 душно 1018.3 974.5
В 1
{2}
50 км 3/1 1500 м
[Cu hum Ac trans Ci fib]
+26.3 +19.2 65 +32 +44 очень
душно
1016.9 974.0
В 2
{4}
40 км 1/1 1500 м
[Cu med, cong Ac trans]
+27.7 +18.7 58 +33 +46 очень
душно
1016.3 973.6
В 2
{5}
40 км 3/1 1500 м
[Cu med, cong Ac trans]
+28.5 +17.7 52 +33 +45 очень
душно
1015.8 973.1
В 2
{5}
40 км осадки на расстоянии 5/4 1500 м
[Cu med, cong Ac trans Ci fib]
+29.7 +17.5 48 +34 +42 очень
душно
1015.2 972.7
В 3
{5}
35 км 3/1 1500 м
[Cu med, cong Ac cuf Ci ing]
+29.2 +18.3 52 +34 +41 очень
душно
1014.5 972.0
В 2
{5}
30 км осадки на расстоянии 5/3 1500 м
[Cu med, cong Ac trans Ci ing]
+29.4 +17.9 50 +34 +42 очень
душно
1014.8 972.3
В 3
{6}
30 км осадки на расстоянии 6/4 1500 м
[Cb cap Ac cuf Ci ing]
+29.2 +18.3 52 +34 +37 очень
душно
1014.3 971.9
В 4
{6}
30 км 5/3 1500 м
[Cu med, cong Ac trans Ci fib]
+27.5 +19.0 60 +33 +34 очень
душно
1014.3 971.6
В 2
{4}
30 км 6/3 1500 м
[Cu med, cong Ac trans Ci fib]
+25.7 +19.6 69 +31 +32 очень
душно
1014.4 971.5
В 1
{2}
30 км 6/1 1500 м
[Cu hum Ac trans Ci fib]
+24.2 +20.3 79 +30 +30 очень
душно
1014.8 971.7 +30.2
штиль 0
{2}
30 км 4/1 1500 м
[Sc Ac trans Ci fib]
+20.6 +18.9 90 +24 +24 комфорт 1016.3 972.6
штиль 0
{1}
30 км 5/4 1500 м
[Sc Ci fib]
+21.9 +19.8 88 +28 +28 душно 1015.6 972.1
З 1
{2}
30 км 4/1 1500 м
[Sc Ac trans Ci fib]
+19.3 +18.3 94 +23 +23 комфорт 1016.6 972.7
З 1
{1}
20 км 3/0
[Ac trans Ci fib]
+18.5 +17.7 95 +20 +20 тепло 1016.9 972.8
СЗ 1
{1}
20 км 3/0
[Ac trans Ci fib]
+18.0 +17.4 96 +19 +19 тепло 1016.9 972.7
ЮВ 1
{2}
30 км ясно +17.5 +17.0 97 +19 +19 тепло 1016.8 972.6
штиль 0
{1}
30 км ясно +16.3 +16.1 99 +16 +16 по сезону 1016.9 972.5
СВ 1
{1}
30 км ясно +16.7 +16.4 98 +18 +18 тепло 1016.9 972.6
В 1
{1}
30 км ясно +15.6 +15.4 99 +16 +16 по сезону 1016.9 972.3
Ю 1
{1}
20 км местами туман поземный 1/0
[Ac trans]
+15.5 +15.3 99 +16 +16 по сезону 1016.8 972.2
СЗ 1
{1}
20 км 1/0
[Ac trans Ci fib]
+16.3 +16.1 99 +17 +18 по сезону 1017.0 972.5
В 1
{2}
20 км 1/0
[Ac cast Ci fib]
+20.3 +17.9 86 +25 +28 комфорт 1016.3 972.5 +15.4
В 1
{2}
30 км 3/1 2000 м
[Cu hum Ac cast Ci fib]
+24.0 +18.9 73 +29 +38 душно 1015.7 972.5
В 1
{2}
30 км 4/4 2000 м
[Sc Ac cast Ci fib]
+22.8 +18.6 77 +29 +33 очень
душно
1016.0 972.6
СВ 1
{2}
30 км 3/1 2000 м
[Cu med, cong Ac cast]
+26.9 +18.5 60 +32 +43 очень
душно
1015.0 972.2
В 2
{4}
30 км 1/1 1500 м
[Cu med, cong Ac cast]
+27.7 +19.0 59 +33 +47 очень
душно
1014.7 972.0
Ю 1
{5}
30 км 1/1 1500 м
[Cu med, cong]
+28.8 +19.1 56 +34 +51 опасность
солнечного
удара
1014.3 971.8
ЮВ 3
{6}
30 км 1/1 1500 м
[Cu med, cong]
+29.0 +16.2 46 +32 +44 душно 1014.1 971.6
ЮВ 3
{5}
30 км 4/3 1500 м
[Cb cap Ac cuf Ci ing]
+29.9 +17.7 48 +34 +39 очень
душно
1013.1 970.8
ЮВ 3
{5}
30 км 3/3 1500 м
[Cu med, cong Ac cuf Ci ing]
+29.5 +17.3 48 +34 +41 очень
душно
1013.6 971.2
ЮВ 3
{5}
30 км 4/1 1500 м
[Cu med, cong Ac cuf Ci ing]
+29.5 +16.7 46 +33 +37 душно 1012.9 970.5
ЮВ 3
{5}
30 км 4/1 1500 м
[Cu med, cong Ac cuf Ci ing]
+29.0 +17.5 50 +33 +35 очень
душно
1013.0 970.5
ЮВ 2
{4}
30 км 4/1 1500 м
[Cu med, cong Ac cuf Ci ing]
+28.0 +18.7 57 +33 +34 очень
душно
1012.8 970.3
В 1
{2}
40 км 8/5 1500 м
[Cu Sc Ac trans Ci fib]
+25.5 +19.6 70 +31 +31 очень
душно
1013.4 970.5 +30.1
ЮВ 1
{1}
30 км 4/3 1500 м
[Sc Ac trans Ci fib]
+21.5 +19.6 89 +27 +27 душно 1015.3 971.8
штиль 0
{1}
40 км 4/4 1500 м
[Cu Sc Ac trans Ci fib]
+22.8 +19.6 82 +29 +29 очень
душно
1014.6 971.3
штиль 0
{1}
30 км 3/3 1500 м
[Sc]
+20.3 +18.4 89 +24 +24 комфорт 1016.0 972.2
штиль 0
{2}
30 км 3/1 1500 м
[Sc Ac trans]
+19.6 +18.4 93 +22 +22 комфорт 1016.3 972.4
штиль 0
{1}
30 км 1/0
[Ci fib]
+18.4 +17.8 96 +19 +19 прохладно 1016.6 972.5
СЗ 1
{2}
30 км 1/0
[Ci fib]
+18.1 +17.6 97 +19 +19 тепло 1016.5 972.4
ЮВ 2
{2}
30 км 4/0
[Cs]
+17.6 +17.1 97 +18 +18 тепло 1016.2 972.0
З 1
{2}
30 км 4/0
[Ci sp]
+18.3 +17.7 96 +20 +20 тепло 1016.3 972.2
З 2
{3}
40 км 4/0
[Ac lent Cc]
+16.6 +16.3 98 +17 +17 по сезону 1016.4 972.0
ЮЗ 1
{2}
40 км 4/0
[Ac lent Cc]
+16.9 +16.6 98 +18 +18 тепло 1016.7 972.3
штиль 0
{2}
20 км 8/0
[Ac trans Ci fib]
+18.3 +17.7 96 +19 +19 тепло 1016.7 972.6
В 1
{2}
20 км 9/1 1500 м
[Cu hum Ac trans Ci fib]
+20.3 +17.9 86 +25 +26 комфорт 1016.7 972.9 +16.4
штиль 0
{2}
20 км 9/1 1500 м
[Cu hum Ac As]
+23.5 +18.8 75 +28 +32 душно 1016.7 973.3
штиль 0
{1}
20 км 9/1 1500 м
[Cu hum Ac trans Ci fib]
+21.7 +18.5 82 +26 +30 душно 1016.8 973.1
СЗ 1
{2}
20 км 9/4 1500 м
[Cu Sc Ac As]
+24.4 +19.2 73 +29 +33 душно 1016.7 973.5
С 2 20 км слаб. ливневой дождь, в посл. час гроза 9/6 1500 м
[Cb cap Ac As]
+24.2 +18.8 72 +29 +32 душно 1016.7 973.5
СЗ 2
{6}
30 км в посл. час ливневой дождь 9/3 1200 м
[Cu Sc Ac As Ci sp]
+23.7 +17.7 69 +28 +34 душно 1017.0 973.7
СЗ 1
{3}
30 км {гроза, ливн. дождь} 9/1 1500 м
[Cu Sc Ac As Ci sp]
+25.8 +20.1 71 +32 +41 очень
душно
1016.3 973.3 0.0
СЗ 2
{4}
30 км 9/4 1500 м
[Cu Sc Ac As]
+26.0 +18.7 64 +31 +33 очень
душно
1016.1 973.1
СЗ 2
{4}
30 км 9/1 1500 м
[Cu Sc Ac As Ci sp]
+26.0 +17.1 58 +30 +36 душно 1016.0 973.0
З 3
{4}
30 км 9/3 1500 м
[Cu Sc Ac As]
+24.7 +19.5 73 +30 +31 очень
душно
1016.4 973.2
З 2
{3}
30 км 6/1 1200 м
[Cu Sc Ac trans Ci fib]
+26.1 +18.5 63 +31 +33 очень
душно
1015.9 972.9
З 1
{3}
30 км 3/1 1200 м
[Cu hum Ac lent Ci fib]
+25.5 +19.6 70 +31 +32 очень
душно
1015.2 972.2
ЮВ 1
{2}
30 км 4/0
[Ac As Ci fib]
+21.5 +20.1 92 +27 +27 душно 1016.2 972.6 +26.4 0.0
В 1
{2}
30 км 6/0
[Ac As Ci fib]
+19.6 +18.3 92 +23 +23 комфорт 1017.9 973.9
В 2
{4}
30 км 4/0
[Ac As Ci fib]
+20.3 +18.8 91 +25 +25 комфорт 1017.1 973.3
ЮЗ 1
{1}
30 км 5/0
[Ac As Ci fib]
+18.8 +18.0 95 +21 +21 комфорт 1018.1 974.0
З 1
{2}
30 км 5/0
[Ac As Ci fib]
+18.4 +17.8 96 +20 +20 по сезону 1018.2 974.0
З 1
{2}
30 км 4/1 1500 м
[Sc Ac trans Ci fib]
+17.6 +17.1 97 +19 +19 прохладно 1018.0 973.7
СЗ 1
{2}
30 км 3/1 1500 м
[Sc Ac trans Ci fib]
+16.8 +16.6 99 +18 +18 тепло 1017.9 973.5
штиль 0
{1}
20 км местами туман поземный ясно +15.8 +15.6 99 +16 +16 по сезону 1017.8 973.2
ЮВ 1
{1}
30 км 1/1 1500 м
[Sc Ac trans]
+16.3 +16.1 99 +17 +17 по сезону 1017.7 973.2
ЮВ 1
{2}
6000 м туман на расстоянии ясно +15.5 +15.5 100 +16 +16 по сезону 1017.9 973.3
штиль 0
{2}
400 м туман ?/? +15.7 +15.7 100 +15 +15 по сезону 1018.3 973.7
СЗ 1
{1}
300 м туман ?/? +16.8 +16.8 100 +18 +18 тепло 1018.5 974.1
З 1
{3}
700 м туман 8/8 30 м
[Sc]
+17.7 +17.7 100 +19 +19 тепло 1018.6 974.3 +15.1 0.0
З 1
{2}
30 км 5/5 1380 м
[Cu Sc Ci fib]
+22.1 +17.9 77 +27 +32 душно 1018.3 974.7
З 1
{3}
20 км 8/8 800 м
[Sc Ci fib]
+20.1 +18.4 90 +24 +26 комфорт 1018.5 974.6
СВ 1
{3}
30 км 3/3 1200 м
[Cu Sc Ci fib]
+24.4 +18.1 68 +29 +39 душно 1017.8 974.5
ЮВ 2
{4}
30 км 3/1 800 м
[Cu med, cong Ci fib]
+25.7 +18.6 65 +31 +43 очень
душно
1017.4 974.3
В 1
{4}
30 км 3/3 1000 м
[Cu med, cong Ci sp]
+26.7 +19.6 65 +32 +45 очень
душно
1016.9 974.0
Ю 1
{5}
30 км 4/4 1080 м
[Cu med, cong Ci fib]
+27.5 +19.0 60 +33 +43 очень
душно
1016.4 973.7
В 5
{8}
30 км 4/4 1080 м
[Cb cap Ac cuf]
+26.1 +17.2 58 +30 +33 душно 1016.0 973.0
ЮВ 2
{5}
30 км 4/4 1080 м
[Cb cap]
+27.6 +18.9 59 +33 +40 очень
душно
1015.8 973.1
В 3
{6}
30 км 5/3 1000 м
[Cb cap Ac cuf Ci fib]
+25.6 +17.8 62 +30 +33 душно 1016.0 973.0
В 3
{6}
30 км 4/1 1200 м
[Cu med, cong Ac cuf Ci sp]
+26.7 +19.6 65 +32 +34 очень
душно
1015.7 972.9
В 2
{4}
30 км 5/1 1200 м
[Cu med, cong Ac cuf Ci fib]
+24.8 +19.8 74 +30 +31 душно 1015.8 972.7
ЮВ 1
{2}
30 км 5/1 1200 м
[Cu hum Ac lent Cs]
+23.1 +19.9 82 +30 +30 очень
душно
1016.3 972.9 +28.5
Ю 1
{1}
30 км 3/1 1000 м
[Cu Sc Ac trans Ci fib]
+20.7 +18.5 87 +26 +26 душно 1017.5 973.7
Ю 1
{1}
30 км 9/4 1300 м
[Sc Ac lent Cs]
+21.3 +19.4 89 +26 +26 душно 1017.1 973.5
штиль 0
{2}
30 км 8/6 1080 м
[Sc Ci fib]
+19.4 +18.6 95 +22 +22 комфорт 1017.8 973.8
Ю 1
{1}
30 км 6/5 1080 м
[Sc Ci fib]
+19.2 +18.2 94 +22 +22 комфорт 1017.9 973.8
ЮВ 1
{1}
30 км 4/4 1080 м
[Sc Ci fib]
+19.0 +18.2 95 +22 +22 комфорт 1017.7 973.7
З 1
{1}
30 км 6/5 1080 м
[Sc Ac trans Ci fib]
+18.6 +18.1 97 +21 +21 комфорт 1017.6 973.5
З 1
{1}
20 км 5/1 1080 м
[Sc Ac trans Ci fib]
+17.4 +17.1 98 +18 +18 тепло 1017.3 973.0
штиль 0
{2}
30 км 1/1 1080 м
[Sc Ci fib]
+17.8 +17.5 98 +18 +18 тепло 1017.6 973.4
СЗ 1
{2}
20 км 6/1 1080 м
[Sc Ac trans Ci fib]
+17.4 +17.1 98 +18 +18 тепло 1017.1 972.8
ЮВ 1
{1}
20 км местами туман поземный 6/3 800 м
[Sc Ac trans Ci fib]
+17.2 +17.0 99 +18 +18 тепло 1017.0 972.7
СЗ 1
{3}
30 км 4/3 1080 м
[Sc Ac trans Ci fib]
+18.1 +17.9 99 +19 +20 тепло 1017.0 972.8
штиль 0 20 км 5/1 600 м
[Sc Ac lent Ci fib]
+19.8 +18.6 93 +22 +25 комфорт 1017.0 973.1 +16.7
В 1
{3}
20 км 5/1 1000 м
[Sc Ac trans Ci fib]
+24.4 +19.7 75 +30 +37 очень
душно
1015.9 972.7
СВ 1
{1}
20 км 5/1 800 м
[Sc Ac trans Ci fib]
+22.8 +18.8 78 +29 +33 очень
душно
1016.4 973.0
В 2
{3}
20 км 5/3 600 м
[Cu hum Ac trans Ci fib]
+25.8 +19.7 69 +31 +39 очень
душно
1015.5 972.5
В 1
{3}
20 км 6/4 600 м
[Cu med, cong Ac trans Ci fib]
+27.0 +21.1 70 +34 +43 очень
душно
1014.9 972.2
ЮВ 2
{5}
20 км 6/5 1000 м
[Cu med, cong Ac trans Ci fib]
+27.7 +20.3 64 +34 +41 очень
душно
1014.2 971.6
Местоположение метеостанции Любляна аэропорт (Словения): широта 46.22 долгота 14.48 высота над уровнем моря 385 м.
В архиве по умолчанию представлена погода в Любляна аэропорту за последнюю неделю. Архивные данные за месяц целиком и за предыдущие месяцы, начиная с января 2011 года, Вы можете получить, выбрав интересующий диапазон дат из раскрывающегося списка и нажав кнопку "Найти!".
*Определитесь, кто Вы:
Внимание! Время в таблицах - всемирное. Для получения местного времени необходимо прибавить поправку, которая равна 1 ч.
Смотрите также архив погоды в соседних городах и на ближайших метеорологических станциях:
Партнеры нашего сайта:      
Пояснения к столбцам:
  • Ветер - указаны скорость ветра в м/с - средняя за 10 мин, порывы в срок и между сроками (в фигурных скобках) и направление, откуда дует ветер: С - северный,
  • СВ - северо-восточный, В - восточный, ЮВ - юго-восточный, Ю - южный, ЮЗ - юго-западный, З - западный, СЗ - северо-западный.
  • Видимость - горизонтальная дальность видимости в метрах или километрах. При видимости от 1 до 10 км при отсутствии осадков обычно наблюдается дымка, при ухудшении видимости до 1 км и менее - туман. В сухую погоду видимость может ухудшаться дымом, пылью или мглою.
  • Явления - указаны атмосферные явления, наблюдавшиеся в срок или в последний час перед сроком; фигурными скобками обозначены явления, наблюдавшиеся между сроками (за 1-3 часа до срока); квадратными скобками обозначены град или гололедные отложения с указанием их диаметра в мм.
  • Облачность - указаны через наклонную черту общая и нижняя облачность в баллах и высота нижней границы облаков в метрах; квадратными скобками обозначены формы облаков: Ci - перистые, Cs - перисто-слоистые, Cc - перисто-кучевые, Ac - высококучевые, As - высокослоистые, Sc - слоисто-кучевые, Ns - слоисто-дождевые, Cu - кучевые, Cb - кучево-дождевые. Подробнее классификацию облаков см. в Атласе облаков (PDF).
  • T - Температура воздуха - температура, измеренная на высоте 2 м над землей.
  • Td - Температура точки росы - температура, при понижении до которой содержащийся в воздухе водяной пар достигнет насыщения.
  • f - Относительная влажность воздуха - влажноcть воздуха, измеренная на высоте 2 м над землей.
  • Te - Эффективная температура - температура, которую ощущает одетый по сезону человек в тени. Характеристика душности погоды. При расчете учитывается влияние влажности воздуха и скорости ветра на теплоощущения человека.
  • Tes - Эффективная температура на солнце - температура, которую ощущает человек, с поправкой на солнечный нагрев. Характеристика знойности погоды. Зависит от высоты солнца над горизонтом, облачности и скорости ветра. Ночью, в пасмурную погоду, а также при ветре 12 м/с и более поправка равна нулю.
  • P - Атмосферное давление - приведенное к уровню моря атмосферное давление.
  • Po - Атмосферное давление - измеренное на уровне метеостанции атмосферное давление.
  • Tmin - Минимальная температура - минимум температуры воздуха на высоте 2 м над землей.
  • Tmax - Максимальная температура - максимум температуры воздуха на высоте 2 м над землей.
  • R - Количество осадков - Количество выпавших осадков за период времени, мм. При наведении курсора мыши на число - период времени, за который выпало указанное количество осадков.
  • R24 - Количество осадков - Количество выпавших осадков за 24 часа, мм.
  • S - Снежный покров - Высота снежного покрова, см. При наведении курсора мыши на число - состояние снежного покрова и степень покрытия местности в баллах.